Theta_e
322 319 321 324 322 321 321 320 319 321 323 327 326 323 326 327 324 327 333 332 332 335 334 338 343 344 346 348 347 350 351 351 352 351 352 350 349 351 351 351 350 349 349 348 347 347 347 347 347 347 347 346 347 347 347 347 347 347 346 346 343 341 339
324 321 324 326 324 323 323 320 322 325 324 326 328 324 326 325 321 324 329 329 330 330 330 339 346 344 345 346 346 349 350 351 351 352 351 351 350 351 351 351 350 350 349 348 347 347 347 347 347 347 347 347 347 347 347 347 347 347 346 346 345 344 341
322 322 324 325 326 326 325 325 326 325 323 324 326 324 324 323 322 324 327 327 329 329 330 338 345 345 345 346 346 347 348 349 350 351 350 350 350 351 351 351 350 350 349 348 348 347 347 347 347 347 347 347 347 348 347 347 346 347 347 346 346 346 344
320 322 323 322 325 326 326 327 328 327 327 327 326 325 323 321 324 325 325 325 326 329 334 339 343 347 346 346 347 347 347 348 349 349 349 350 350 351 351 351 350 350 350 349 348 348 347 347 346 347 347 346 347 348 348 348 347 347 347 347 347 346 345
319 321 323 322 325 328 326 325 325 326 328 327 326 328 326 323 325 326 325 323 323 329 338 341 344 346 346 347 348 348 349 349 348 348 348 348 349 350 350 351 351 350 350 349 349 348 348 347 346 347 347 347 347 347 347 348 347 348 348 347 347 346 346
320 321 322 321 324 327 327 326 326 327 328 326 323 326 329 328 325 326 326 323 323 331 337 340 345 345 346 349 348 348 349 349 348 348 348 347 347 348 349 350 350 350 350 349 349 348 347 347 347 347 347 346 347 347 347 347 348 347 347 347 347 347 346
322 323 322 321 322 325 326 326 327 328 329 326 320 321 328 331 328 327 327 323 324 333 337 340 346 347 347 349 349 348 348 348 347 348 348 347 347 347 347 348 349 349 349 349 349 348 348 348 348 347 346 347 347 347 347 347 348 347 347 347 347 347 347
325 323 324 323 322 326 327 326 328 328 327 327 325 324 329 331 328 328 327 323 324 332 339 343 348 347 347 347 347 348 348 347 347 347 347 347 346 346 346 346 347 347 348 349 347 347 348 347 348 347 347 347 347 347 347 346 347 348 348 347 347 347 347
323 322 323 324 324 326 327 329 330 329 329 330 329 330 330 328 328 328 324 321 323 331 337 341 345 345 345 346 345 346 347 347 346 345 346 345 344 346 346 346 346 347 347 348 347 347 347 346 347 347 347 348 347 347 347 346 346 347 347 347 347 346 347
316 319 321 321 323 326 324 328 331 329 331 331 330 330 327 324 328 330 324 320 324 331 334 336 341 342 343 345 343 343 345 345 345 345 344 343 344 344 345 346 346 346 347 348 348 347 347 346 346 347 347 347 347 347 347 346 346 346 346 348 347 347 347
318 326 331 326 326 325 320 324 329 329 329 331 331 329 324 325 329 329 328 330 328 330 335 337 340 340 341 343 342 342 344 344 344 344 341 342 344 343 343 344 345 346 347 347 348 348 348 348 347 346 347 346 346 347 346 346 346 346 346 347 347 347 347
324 330 331 326 325 324 320 323 327 329 330 330 329 326 326 332 327 322 333 341 331 327 335 337 337 339 340 342 342 341 343 343 342 342 341 343 344 342 342 343 345 346 347 347 348 348 348 348 348 347 346 346 345 346 345 346 346 345 346 347 347 347 347
324 324 322 321 324 322 321 323 324 327 331 330 328 329 331 332 325 323 337 344 333 330 334 333 335 338 338 340 339 338 340 341 341 341 341 342 343 342 343 344 345 347 347 347 348 348 348 349 348 348 347 346 346 345 344 345 346 346 346 346 347 347 347
322 321 320 320 322 321 321 322 321 323 327 328 329 330 331 332 330 332 338 341 337 334 333 336 339 339 339 341 339 338 340 341 340 341 341 341 342 343 344 345 345 345 345 346 346 347 347 348 348 349 348 348 348 347 346 345 345 346 346 346 346 346 346
319 320 320 318 319 321 321 321 322 322 323 325 327 329 329 330 332 334 335 337 338 335 335 341 342 339 341 343 342 340 341 341 341 342 341 341 342 343 344 344 343 343 344 344 344 345 345 346 347 348 348 348 348 347 347 347 346 346 346 346 346 346 346
318 320 321 319 320 321 320 320 324 323 323 324 325 329 330 329 333 335 332 331 333 335 338 343 343 341 344 344 342 340 339 340 341 341 341 342 343 344 344 344 343 342 342 342 343 343 343 344 345 345 346 347 347 348 347 347 347 346 347 346 347 347 347
317 319 321 321 320 320 318 320 325 326 327 328 327 328 331 331 332 333 330 329 333 337 340 343 343 343 344 343 341 340 339 340 341 341 341 342 343 344 343 343 342 342 341 341 341 342 342 343 343 344 344 345 347 348 347 347 347 347 346 347 347 346 346
318 321 323 321 320 319 319 324 328 327 327 329 328 329 331 332 333 335 334 334 337 337 341 344 344 343 343 342 340 339 339 340 341 341 342 342 342 342 342 342 342 341 341 340 340 341 341 342 342 342 343 343 344 346 347 348 347 347 346 347 347 347 347
320 322 322 319 318 320 322 326 330 328 326 327 329 334 336 334 335 339 340 339 340 341 343 343 342 341 341 340 340 340 340 340 341 341 342 342 342 341 341 341 341 340 340 340 340 340 340 340 341 341 341 342 343 343 345 347 348 347 347 347 347 347 347
321 320 319 319 321 323 325 329 331 330 329 330 329 332 336 336 336 338 340 341 342 341 340 340 340 340 339 339 339 339 339 339 340 341 341 342 340 340 340 340 340 340 339 339 339 339 338 339 340 340 341 342 342 342 344 345 347 348 347 347 347 347 346
322 320 319 321 322 322 326 332 334 332 333 334 331 328 331 337 338 338 341 343 341 340 340 340 340 339 339 339 339 337 336 338 339 339 340 339 338 338 339 340 340 339 338 338 338 337 337 338 339 340 340 341 341 342 342 343 344 345 347 347 347 347 347
322 321 319 320 319 318 325 333 333 332 331 332 332 327 327 335 340 340 344 344 341 340 341 339 339 339 337 335 337 335 335 336 337 337 337 337 338 338 338 339 339 337 337 337 336 336 337 338 339 340 340 340 341 342 342 341 341 342 344 346 347 347 347
322 320 318 320 319 321 331 334 330 328 328 328 328 325 324 332 340 340 343 346 342 342 342 340 340 338 332 330 333 333 332 335 337 338 338 338 338 337 337 337 337 337 336 335 335 336 337 338 339 339 340 340 341 341 341 341 341 340 341 342 343 345 346
322 320 319 320 321 325 334 335 329 327 328 327 326 322 322 332 338 338 342 346 344 343 341 340 340 335 331 333 331 330 332 336 338 339 339 339 339 337 336 336 336 336 335 334 335 336 337 338 338 339 339 339 340 340 340 340 340 340 340 340 340 341 342
322 320 319 320 322 327 332 330 327 327 327 325 323 322 325 332 335 336 341 344 343 342 339 339 339 334 332 331 331 331 332 335 337 338 338 338 339 337 335 335 335 334 334 335 335 336 337 338 339 339 339 339 339 339 339 339 339 339 340 341 341 341 341
322 322 320 319 321 325 328 328 327 326 325 325 326 326 326 330 333 337 340 341 341 338 336 335 334 333 331 331 332 332 331 334 337 338 338 338 338 336 334 334 334 334 335 335 335 336 337 337 337 338 338 338 338 338 338 339 340 341 342 344 344 344 343
322 321 320 319 320 325 327 328 328 327 327 328 328 327 327 329 334 337 337 337 335 333 332 333 333 333 333 333 333 333 334 336 338 338 339 338 336 334 334 334 334 334 335 335 335 335 336 336 336 337 337 337 338 338 339 340 341 343 344 345 343 342 342
321 320 321 322 325 328 329 329 330 329 328 327 327 328 330 333 335 334 333 332 331 331 333 333 334 335 334 333 334 336 336 337 338 338 338 337 334 334 333 333 334 334 333 333 333 334 336 336 336 338 338 338 339 339 340 341 341 343 344 344 343 341 341
325 323 324 326 327 327 327 328 329 328 327 327 328 328 330 332 333 332 331 331 331 332 333 334 334 335 334 333 334 335 336 338 338 338 337 335 333 333 333 333 333 333 332 332 333 335 336 337 337 339 339 339 340 340 340 340 341 342 343 343 343 342 342
327 325 326 328 328 327 326 327 328 327 326 328 329 328 328 329 330 330 330 331 332 333 333 334 334 334 333 333 334 334 336 338 338 337 336 333 332 333 332 332 333 333 332 332 333 336 337 337 338 339 339 339 339 340 340 340 341 341 342 344 345 344 343
325 325 329 331 332 330 327 326 327 327 326 328 329 328 328 328 328 329 330 332 332 332 333 334 334 333 333 334 334 334 335 337 337 336 335 332 332 332 332 333 333 332 333 333 335 336 337 338 338 338 338 339 339 339 339 339 339 340 341 342 344 344 344
326 328 332 332 331 330 329 326 326 328 328 328 329 328 328 329 329 330 331 331 332 332 333 333 333 333 334 334 334 334 335 336 337 336 333 332 331 332 332 332 332 332 333 334 335 336 337 337 337 336 337 337 337 337 338 337 338 338 339 340 342 343 343
328 329 332 332 330 331 330 328 327 328 328 329 329 329 330 330 329 330 331 331 332 332 332 332 332 333 334 334 335 335 335 336 336 334 332 331 331 332 332 332 331 331 333 334 334 335 336 336 335 334 335 336 336 337 337 336 336 336 337 338 339 340 340
328 328 331 332 332 333 331 329 327 328 329 329 329 329 330 329 329 329 330 330 331 331 332 332 332 332 333 335 335 335 336 336 334 333 331 330 331 331 332 331 331 332 333 333 333 334 336 336 334 334 335 336 336 337 338 336 335 335 335 336 336 336 336
328 328 327 328 330 332 331 328 328 329 329 329 329 329 329 329 328 329 330 331 331 331 331 331 330 331 333 335 335 336 335 335 333 331 330 330 330 331 330 330 330 331 331 332 332 333 334 335 335 334 335 336 337 337 337 336 335 334 334 335 334 333 332
327 326 326 326 327 329 329 328 328 330 329 330 329 329 329 329 329 330 331 331 331 331 332 332 331 331 333 335 336 335 334 334 332 331 329 329 329 328 328 327 327 329 330 331 332 333 333 334 334 334 334 335 336 336 336 336 335 335 335 334 333 332 331
326 326 328 328 327 327 328 329 331 330 330 330 330 330 330 330 329 330 331 331 332 332 332 332 332 332 334 336 336 335 334 333 332 330 329 328 327 326 324 323 324 326 329 331 332 333 333 333 333 333 333 333 334 335 335 335 335 336 336 334 333 331 330
Wind_Speed
2 1 3 2 0 3 3 2 3 1 1 1 3 1 1 0 2 1 1 3 2 1 2 2 2 3 3 3 3 3 5 5 4 3 3 5 8 12 17 22 27 29 29 30 31 31 30 28 27 27 27 26 25 25 23 22 21 22 22 22 21 20 20
4 2 5 7 5 1 2 3 4 4 1 1 1 1 1 1 3 1 1 4 3 2 2 1 3 4 3 2 2 2 3 4 4 4 4 3 5 8 13 18 24 27 26 27 29 30 31 29 26 26 27 27 27 26 25 23 22 22 22 22 22 21 20
3 0 3 6 7 6 2 4 6 3 1 1 1 1 1 1 2 1 1 3 3 4 3 1 4 6 4 2 1 1 2 3 4 4 4 3 3 5 8 13 18 23 24 26 28 30 30 28 25 25 26 27 29 29 28 26 23 21 21 21 23 23 21
0 1 2 3 4 6 5 5 5 1 1 1 1 0 0 1 1 1 1 2 2 3 2 2 5 7 5 3 1 1 2 3 3 3 4 4 3 3 5 9 14 19 23 25 27 28 28 25 24 26 27 27 28 29 30 29 26 24 23 22 23 23 23
2 2 1 2 2 4 3 4 4 1 2 1 0 1 1 1 1 1 2 2 2 1 1 3 5 6 5 3 1 1 2 2 3 4 5 5 4 3 4 7 12 15 19 22 24 25 27 25 25 28 30 30 29 29 30 29 28 27 26 25 24 23 23
2 0 2 2 2 0 1 3 3 3 4 2 2 1 0 1 1 1 1 3 2 2 1 3 2 3 3 1 1 1 2 3 3 4 5 5 5 4 5 6 10 13 15 18 20 23 25 27 28 29 31 31 31 31 29 28 28 27 26 27 26 24 23
1 3 4 1 2 1 2 1 1 3 3 3 3 2 2 2 0 0 0 2 1 2 1 2 1 1 1 2 2 1 2 2 3 3 4 4 4 4 5 6 8 11 13 16 18 20 23 26 28 29 31 32 32 32 30 29 29 27 25 26 27 25 24
0 1 2 2 1 2 2 2 2 2 1 1 1 0 1 3 2 2 2 2 1 2 1 1 1 1 2 3 3 1 1 2 2 3 4 4 4 4 4 5 6 8 10 14 16 18 20 22 25 28 30 30 31 31 31 30 30 28 26 25 26 26 26
2 2 2 2 2 2 1 2 2 2 4 5 4 3 1 2 2 2 2 3 0 2 1 2 2 3 4 4 3 2 2 2 3 4 5 5 5 4 3 4 5 5 7 10 15 17 18 19 22 26 28 29 29 30 30 30 31 30 28 27 26 26 27
5 4 3 2 2 2 1 2 3 3 5 6 3 3 2 3 2 2 3 2 0 1 2 4 4 4 4 4 3 3 2 2 4 6 7 7 6 5 3 2 5 6 6 7 11 14 17 18 19 23 26 27 27 28 29 30 31 30 30 29 28 27 27
4 3 2 0 1 4 3 3 5 4 4 4 3 2 2 2 3 4 5 2 2 1 3 4 5 5 5 4 3 2 1 2 4 6 7 6 6 6 5 2 3 5 6 7 8 10 13 15 18 21 24 25 25 26 26 28 30 31 31 31 31 30 29
1 1 2 1 1 3 4 5 7 6 5 6 5 4 2 4 4 4 4 3 3 5 2 3 4 4 4 3 2 2 2 2 3 4 5 5 4 5 5 3 3 4 5 6 7 8 10 12 15 18 22 23 24 24 24 25 28 30 31 31 32 32 32
0 1 1 0 1 1 2 4 6 6 7 8 8 5 4 7 5 3 2 6 6 5 2 0 1 1 1 1 3 5 4 3 2 2 3 4 4 4 4 3 3 3 4 4 5 6 8 10 12 15 18 21 23 24 25 25 26 28 30 31 31 32 33
2 1 1 1 1 2 2 3 3 5 7 8 8 5 5 7 4 2 2 6 7 4 1 2 1 2 2 4 5 5 4 3 2 2 3 5 6 4 3 4 3 3 4 5 5 5 6 8 10 12 15 18 20 23 25 26 27 27 29 31 30 31 32
3 1 1 1 1 2 3 3 1 3 5 6 6 4 4 5 4 1 3 4 5 2 2 3 3 3 5 5 5 4 4 3 2 2 3 5 6 5 4 5 5 5 5 6 7 7 6 7 8 10 13 15 17 20 22 25 26 27 28 31 31 31 32
3 1 2 3 2 1 3 4 4 6 5 3 4 4 5 7 6 5 5 5 4 1 4 4 5 5 5 4 5 5 4 3 2 2 2 4 5 5 5 5 6 7 8 9 9 9 9 9 8 9 10 12 14 16 19 22 24 25 26 29 32 33 33
4 2 1 3 4 3 4 4 4 7 5 2 3 3 5 7 6 5 5 4 1 4 4 5 6 5 5 4 5 5 4 3 3 2 2 3 5 5 6 7 8 9 10 11 11 11 11 11 10 10 10 11 10 11 14 17 21 24 25 26 28 31 33
4 3 1 3 5 6 4 1 0 3 4 4 4 4 4 6 5 1 3 0 4 4 5 5 6 6 6 6 6 5 3 3 2 2 2 3 5 6 7 8 9 10 10 10 11 11 11 11 11 11 12 12 11 11 12 13 15 19 23 26 27 28 29
2 3 2 5 7 5 0 2 1 2 3 4 4 4 4 6 6 3 3 1 4 5 4 5 6 7 6 6 5 4 3 3 2 2 3 3 5 6 8 9 10 10 10 11 11 10 11 12 13 14 15 15 15 15 14 14 13 14 17 23 27 29 29
2 3 5 6 3 1 1 1 1 3 3 4 4 4 5 8 9 7 4 2 5 6 5 5 6 6 5 4 3 3 3 3 3 4 4 4 6 8 9 9 10 10 11 12 11 11 12 14 15 16 17 17 18 17 16 16 16 16 16 18 22 26 30
1 4 6 3 3 1 3 2 3 4 4 5 4 3 3 6 7 7 5 5 7 8 7 6 6 5 4 3 3 4 3 3 4 5 6 7 8 9 9 9 10 11 12 12 12 13 15 16 17 18 19 19 20 19 18 18 18 19 20 20 20 21 26
1 2 4 3 3 5 5 4 4 4 3 4 3 2 1 4 7 9 7 6 9 10 8 8 7 5 4 3 2 3 3 4 5 6 7 7 7 7 8 9 10 11 11 12 13 15 16 16 17 18 19 20 20 21 20 20 20 20 21 23 23 22 24
3 3 4 5 5 4 3 3 5 6 6 6 4 3 4 5 11 13 10 8 11 11 10 10 8 4 3 2 1 3 4 5 6 6 6 5 5 6 8 9 10 10 12 14 15 16 17 17 17 17 18 19 19 21 21 21 22 23 23 23 24 25 26
4 5 4 3 3 2 1 1 3 7 8 7 5 4 4 4 13 18 13 11 13 13 11 10 6 3 3 1 1 4 4 5 5 4 4 4 5 6 8 9 9 11 13 14 15 15 16 16 16 16 17 18 18 19 20 21 23 24 25 25 25 26 27
5 6 4 2 2 2 1 3 6 10 9 6 5 4 2 7 16 19 14 13 16 15 13 10 6 4 5 3 2 4 5 4 4 3 3 4 4 6 8 10 11 12 12 12 12 13 13 14 14 15 16 17 18 18 20 20 20 21 23 24 26 28 28
3 4 3 2 1 2 4 7 9 10 7 4 5 3 4 12 19 19 16 14 15 15 13 11 7 6 7 6 5 5 5 4 4 3 3 4 4 7 9 10 11 12 11 11 10 10 11 11 13 14 15 16 17 17 18 17 15 15 17 20 23 26 28
2 1 4 4 2 4 15 15 7 5 4 2 5 7 6 13 20 19 17 16 14 13 13 11 9 8 7 8 7 6 5 4 4 4 4 4 5 8 9 9 10 10 10 10 10 10 12 13 13 14 15 15 15 15 15 15 13 13 14 15 18 22 26
3 3 5 3 3 6 23 17 4 9 10 2 8 13 10 13 19 19 18 17 14 12 11 10 10 10 9 8 7 6 5 4 4 4 3 4 6 8 8 8 9 9 10 9 10 11 13 14 15 15 15 14 14 15 16 17 15 13 11 11 12 13 16
3 2 2 1 6 5 23 13 1 10 16 6 8 14 14 16 20 18 16 16 14 12 11 9 9 10 9 9 8 6 5 4 3 3 3 5 6 7 7 7 8 9 9 10 11 12 13 14 15 15 14 14 15 16 18 18 16 13 11 11 11 8 7
3 4 4 4 6 3 18 14 1 8 16 10 9 13 13 16 17 14 13 14 12 11 11 10 10 10 9 9 8 6 5 5 4 3 3 5 6 6 6 6 8 8 9 11 12 12 13 13 14 14 14 15 16 17 18 18 17 15 13 13 11 8 6
2 2 1 1 4 3 11 17 9 7 13 14 12 11 12 14 13 12 12 12 11 11 10 9 9 9 8 9 8 6 5 5 4 3 3 5 5 4 4 6 6 7 9 11 12 12 12 13 13 14 14 14 15 16 16 16 16 15 14 13 13 12 10
2 3 4 5 7 5 7 16 15 10 12 16 15 12 12 13 13 12 11 11 11 11 9 9 8 8 8 8 7 6 5 5 4 3 4 4 3 3 4 5 6 7 9 10 11 11 11 12 13 13 13 13 14 15 15 15 15 14 13 11 10 12 12
3 4 5 5 5 5 6 15 17 13 13 17 16 12 12 12 12 11 10 10 9 9 8 8 8 8 7 7 6 6 5 5 3 2 3 3 2 2 3 5 6 7 8 9 9 8 9 11 13 13 12 13 15 16 16 16 15 12 8 4 3 4 5
4 2 2 2 3 3 5 11 15 13 13 16 15 13 13 12 10 8 9 9 9 8 8 8 7 6 6 7 7 7 6 5 3 2 1 0 1 0 2 4 5 6 6 6 5 5 8 11 12 12 13 15 16 17 16 15 13 8 4 4 6 6 7
4 3 6 5 5 5 5 5 10 14 15 15 14 13 12 11 8 7 8 8 8 9 9 7 6 5 5 6 7 8 7 6 3 2 1 2 2 1 2 3 3 3 4 4 4 5 8 10 10 11 14 15 16 16 15 13 10 8 8 11 13 14 17
6 7 10 10 8 9 10 7 9 15 17 15 14 12 10 9 8 8 8 7 7 8 8 7 6 7 6 6 7 8 8 6 4 2 2 3 3 2 1 2 2 3 4 5 4 5 8 10 9 11 14 15 16 16 15 12 10 11 14 19 23 24 26
8 10 13 14 12 11 12 9 8 15 16 14 14 12 9 8 8 8 7 7 7 6 7 7 7 8 7 7 9 9 8 6 4 4 4 5 4 2 1 1 3 4 5 4 4 5 8 10 12 14 16 17 18 19 17 14 13 15 18 23 29 31 31
Wind_Direction
34 199 148 100 354 151 134 184 186 75 23 125 117 103 59 357 247 187 168 252 256 257 238 205 195 172 118 61 42 35 22 24 24 357 300 263 244 230 224 223 226 229 230 228 228 228 228 229 232 235 235 233 231 230 229 226 224 224 224 222 221 222 226
62 64 121 83 32 36 164 183 145 118 90 46 99 146 117 200 255 213 194 273 286 274 259 140 169 201 168 103 69 65 43 40 37 17 354 319 275 249 235 228 227 230 231 228 225 226 227 227 230 236 240 240 237 236 235 232 229 228 228 227 226 225 227
98 44 151 97 53 23 38 125 124 134 209 161 113 182 159 212 267 227 189 282 283 242 249 179 184 200 191 169 107 78 64 48 33 15 5 347 312 273 248 232 227 228 230 229 228 229 231 231 232 236 240 242 241 239 237 236 236 235 234 232 231 230 229
165 269 224 171 102 64 69 116 121 1 335 95 102 126 237 260 266 270 238 263 249 221 237 227 192 190 190 184 163 54 44 41 24 6 358 345 327 293 258 237 231 228 229 232 233 234 233 231 235 239 239 241 242 240 239 238 238 240 239 237 236 235 233
225 187 166 226 157 117 139 163 156 128 96 102 142 112 14 299 202 220 270 273 279 110 184 217 189 180 182 176 171 12 31 36 22 8 358 348 335 303 263 242 236 233 232 235 237 237 234 232 235 238 239 240 240 240 241 240 239 242 243 242 242 240 238
195 177 20 308 278 72 176 200 180 155 134 147 189 163 139 308 282 203 256 290 313 70 164 231 182 159 161 175 248 332 35 25 16 14 10 2 346 315 283 256 243 237 236 238 239 239 238 235 235 236 237 237 237 241 244 242 239 241 244 245 245 244 243
257 331 349 302 236 125 94 43 136 153 144 160 207 223 182 153 109 53 222 290 305 95 150 239 177 111 151 205 253 320 33 15 7 10 14 17 6 336 303 278 259 249 243 241 241 240 240 238 238 237 237 236 238 242 245 244 240 241 243 245 246 247 247
254 315 13 69 122 151 136 72 96 155 149 97 124 126 149 167 172 170 194 246 226 98 102 233 229 230 209 212 235 264 330 346 350 358 3 5 6 357 321 296 280 262 252 246 243 241 240 240 239 238 238 239 240 242 245 246 245 244 243 244 246 247 246
163 169 168 142 165 205 192 95 108 130 112 107 110 107 125 209 185 177 228 243 217 93 109 223 214 220 229 214 206 236 276 322 334 340 346 345 353 4 344 306 291 277 258 247 243 242 243 242 241 240 240 240 241 242 245 248 248 247 244 243 244 246 246
190 196 204 210 184 170 135 123 140 135 130 135 135 120 181 223 171 172 227 242 9 120 176 219 211 211 232 217 192 223 261 300 318 326 334 337 344 358 360 311 284 280 272 256 246 245 245 245 242 239 238 240 243 245 246 248 250 250 247 243 241 243 246
203 208 192 279 173 156 157 163 159 157 149 137 122 134 205 193 147 191 225 244 306 267 192 214 218 212 225 216 178 174 207 270 296 313 326 332 341 349 354 336 285 277 276 271 263 255 252 250 246 241 238 239 242 245 246 247 249 250 250 247 243 242 245
234 224 137 119 221 169 160 159 159 166 159 147 168 207 190 139 158 229 218 177 241 268 250 228 231 219 226 233 192 168 175 215 261 299 317 322 331 340 343 333 300 288 285 281 277 271 264 257 252 248 245 242 242 244 246 246 247 248 249 250 248 245 245
157 202 138 91 237 150 144 162 159 162 166 177 203 216 167 169 211 269 158 165 211 254 279 230 258 244 236 173 154 167 176 196 234 286 303 310 314 317 327 327 313 318 325 317 301 286 275 266 259 254 251 248 245 245 247 249 248 246 246 248 250 249 248
124 177 217 226 207 162 170 192 162 159 179 199 217 215 176 192 236 323 135 189 223 255 23 103 88 75 96 108 133 156 171 186 214 264 291 308 311 308 317 317 306 317 333 330 322 312 293 277 268 262 258 255 251 248 247 249 250 248 245 246 249 250 250
132 121 90 137 213 188 182 208 183 160 185 208 222 218 184 201 235 204 166 216 241 266 68 113 125 121 129 131 140 160 177 190 207 251 293 306 305 304 310 306 297 299 309 315 312 307 300 286 276 271 266 262 260 256 251 249 250 249 246 245 247 249 250
170 136 121 147 140 134 207 236 226 197 192 199 207 200 191 201 200 169 179 232 244 145 109 131 147 147 148 153 163 173 186 201 208 229 271 287 288 291 300 300 299 297 298 304 305 301 298 293 286 280 273 267 265 262 258 254 250 247 245 244 246 247 248
167 122 127 153 146 181 225 239 222 203 195 191 206 212 214 212 194 170 199 232 130 119 149 161 159 161 170 181 179 174 179 196 206 223 248 269 273 281 292 295 298 302 303 305 305 301 297 294 292 288 282 279 274 267 263 258 252 247 243 241 243 245 245
161 118 96 166 183 207 215 139 188 209 190 187 210 231 228 211 197 216 262 230 99 140 184 174 161 169 174 176 172 163 169 199 218 234 243 264 278 286 295 297 300 308 311 311 309 304 298 294 292 286 282 280 276 267 262 259 256 251 244 239 239 241 242
135 113 148 191 202 212 167 53 34 219 197 197 218 246 234 206 197 222 261 193 137 158 168 149 154 166 165 165 169 170 187 221 244 252 255 276 292 296 301 305 308 310 311 312 310 305 297 289 284 281 279 277 274 268 261 256 253 252 249 243 240 239 240
125 155 182 200 225 282 4 38 111 144 162 182 204 230 218 199 198 209 215 150 137 150 152 151 157 163 166 176 191 197 204 231 255 263 272 286 296 300 302 305 312 315 315 313 309 302 295 288 283 282 278 275 273 270 265 261 255 251 251 248 244 241 239
177 183 190 220 318 282 203 188 171 171 169 170 191 236 213 182 192 201 181 140 149 159 161 168 170 169 181 199 203 203 212 237 260 271 282 289 296 301 302 305 313 317 314 307 303 302 298 292 288 285 281 278 277 274 270 268 264 258 254 251 248 245 242
167 174 195 216 242 225 210 194 182 189 177 151 163 239 231 171 184 193 178 157 165 168 168 177 179 182 207 228 201 209 240 255 263 277 288 294 302 309 310 309 312 313 309 302 303 304 301 296 293 290 287 285 282 279 277 274 272 268 263 257 253 250 246
162 186 206 206 212 225 220 184 169 177 172 146 141 223 241 182 177 185 182 168 171 175 175 175 175 190 231 251 215 228 259 261 256 271 283 289 309 324 322 315 310 311 312 311 311 309 304 301 298 294 292 289 284 282 282 280 279 276 272 267 261 256 252
173 191 208 219 226 240 257 215 181 174 169 156 159 218 240 166 172 181 181 175 177 176 169 167 172 204 222 225 233 238 257 257 244 259 282 279 299 322 324 320 318 319 321 320 318 315 311 308 304 298 296 293 288 285 283 283 285 284 280 277 270 263 257
181 192 210 237 242 228 216 199 174 159 156 169 200 222 192 147 168 178 178 177 179 175 169 170 181 209 209 215 243 239 250 252 233 252 296 283 293 319 326 327 326 325 326 324 322 324 324 320 314 308 302 298 293 288 285 284 284 283 281 279 275 269 262
169 190 215 220 252 217 159 150 157 158 161 194 203 187 147 160 168 173 175 177 178 179 181 184 189 198 208 219 238 243 245 244 230 247 284 286 301 323 328 328 325 323 326 328 330 338 342 335 328 319 311 306 303 298 295 295 291 283 277 275 273 271 266
145 188 200 193 257 184 153 141 142 185 211 219 162 143 144 167 169 168 172 177 179 183 187 191 196 206 218 224 234 239 232 227 233 249 274 298 315 327 330 326 324 327 331 335 344 354 354 348 342 335 324 320 321 318 318 319 312 300 290 283 277 271 267
184 207 188 180 341 172 163 153 153 203 199 167 147 151 148 166 172 171 174 179 182 184 188 194 205 218 231 235 235 231 222 228 240 248 276 311 321 328 331 327 330 335 338 343 355 1 358 352 349 344 337 334 333 330 330 330 322 314 311 311 303 284 268
207 256 231 288 347 193 181 178 12 192 190 172 146 159 157 164 174 177 177 180 182 186 193 203 214 225 238 243 240 232 222 227 239 250 285 313 321 328 333 331 333 340 346 353 0 2 358 353 351 348 345 342 336 331 331 333 332 331 329 325 323 311 277
231 261 255 268 334 243 201 207 239 176 187 176 151 159 160 163 171 176 178 183 188 193 202 211 221 231 241 241 240 238 226 223 233 257 296 319 327 333 337 334 335 344 353 358 1 1 355 351 353 354 350 343 338 335 335 336 338 340 331 312 298 289 272
240 245 287 297 334 313 219 218 221 196 188 177 159 154 153 155 163 169 174 185 195 201 211 220 225 235 241 237 237 235 220 216 228 262 305 326 333 336 335 334 342 356 1 360 360 357 353 356 3 2 356 352 349 347 345 343 341 340 330 307 282 268 259
258 274 313 310 304 303 236 220 221 218 194 177 163 154 153 153 157 164 171 184 194 201 211 218 222 233 237 235 236 228 213 209 219 255 307 328 332 334 343 348 356 7 8 3 359 355 0 13 18 13 10 13 12 8 4 0 354 344 329 307 282 265 255
269 265 281 292 290 293 241 219 218 218 198 182 171 164 162 159 158 164 174 184 191 199 208 214 223 234 236 232 228 216 201 196 207 253 314 331 314 325 3 9 7 9 11 6 360 3 20 27 23 22 28 33 29 24 18 12 8 358 336 306 270 253 246
254 275 302 276 245 266 250 221 216 215 200 187 180 174 168 163 163 173 184 189 193 199 207 212 220 233 238 232 219 201 183 179 198 249 302 295 237 335 30 26 16 13 18 14 8 27 45 37 24 26 38 41 38 35 27 19 19 27 51 96 105 109 117
268 324 335 304 257 267 287 250 221 214 202 190 186 180 170 164 168 182 194 201 204 205 206 206 212 225 234 226 208 187 171 172 199 240 210 173 165 125 75 53 37 28 28 30 35 59 65 54 36 36 46 48 46 43 38 33 40 64 94 103 103 108 115
298 318 329 317 288 276 288 282 228 208 198 189 184 179 169 167 175 186 198 208 209 206 205 208 218 225 222 208 194 181 170 176 208 232 186 163 156 139 105 88 85 64 42 40 57 78 81 75 64 58 60 60 57 53 51 56 73 95 108 109 108 111 114
307 320 323 316 301 283 282 280 227 200 191 183 180 177 172 174 180 187 201 208 208 210 214 218 223 223 211 192 181 175 172 182 209 206 168 156 158 153 124 122 106 83 61 52 70 93 98 94 86 79 74 73 72 69 68 74 89 103 110 113 114 116 118